Terminal Aerodrome Forecast
Issued by NWS Wakefield, VA

Home | Current Version | Previous Version | Text Only | Print | Product List | Glossary On
Versions: 1 2 3 4 5 6 7 8 9 10 11 12 13
000
FTUS41 KAKQ 290500
TAFRIC
TAF
KRIC 290540Z 2906/3006 03005KT P6SM SCT060
     FM291600 07007KT P6SM SCT050
     FM292200 10006KT P6SM BKN070=

USA.gov is the U.S. government's official web portal to all federal, state and local government web resources and services.